EAL561 KATL-KSEA

Flight info

Callsign EAL561
Flight time 4h 44m
Altitude 36000
Route ATL2 NOONE JAACE HITMN LAJUG J45 STL IRK OVR ONL J151 RAP/N0484F380 J151 BIL J136 MLP GLASR3
Aircraft L101/H-SDFHIWXY/C

Departure

Time 2026-05-05 18:51
Airport Hartsfield Jackson Atlanta International Airport (KATL)

Arrival

Time 2026-05-05 23:35
Airport Seattle–Tacoma International Airport (KSEA)
Time Latitude Longitude Altitude Speed Heading
2026-05-05 18:37 33.63729 -84.42633 1040 ft 0 kts 90°
2026-05-05 18:39 33.63729 -84.42637 1040 ft 3 kts 90°
2026-05-05 18:39 33.63729 -84.42669 1040 ft 4 kts 88°
2026-05-05 18:39 33.63725 -84.42700 1041 ft 4 kts 68°
2026-05-05 18:40 33.63712 -84.42726 1041 ft 4 kts 35°
2026-05-05 18:40 33.63694 -84.42735 1042 ft 1 kts
2026-05-05 18:40 33.63690 -84.42735 1040 ft 0 kts
2026-05-05 18:42 33.63691 -84.42735 1040 ft 0 kts
2026-05-05 18:43 33.63695 -84.42735 1042 ft 1 kts
2026-05-05 18:43 33.63706 -84.42735 1040 ft 2 kts
2026-05-05 18:43 33.63730 -84.42735 1040 ft 5 kts
2026-05-05 18:43 33.63772 -84.42734 1040 ft 7 kts
2026-05-05 18:44 33.63831 -84.42734 1040 ft 10 kts 360°
2026-05-05 18:44 33.63909 -84.42734 1040 ft 13 kts 360°
2026-05-05 18:44 33.64006 -84.42734 1040 ft 15 kts 360°
2026-05-05 18:44 33.64118 -84.42734 1040 ft 18 kts
2026-05-05 18:45 33.64248 -84.42735 1040 ft 20 kts 360°
2026-05-05 18:45 33.64392 -84.42735 1040 ft 20 kts 358°
2026-05-05 18:45 33.64468 -84.42659 1040 ft 16 kts 86°
2026-05-05 18:45 33.64469 -84.42518 1040 ft 18 kts 89°
2026-05-05 18:46 33.64469 -84.42359 1040 ft 20 kts 90°
2026-05-05 18:46 33.64495 -84.42213 1040 ft 18 kts 60°
2026-05-05 18:46 33.64540 -84.42071 1040 ft 19 kts 85°
2026-05-05 18:46 33.64542 -84.41904 1040 ft 21 kts 90°
2026-05-05 18:47 33.64542 -84.41726 1041 ft 22 kts 89°
2026-05-05 18:47 33.64543 -84.41531 1041 ft 25 kts 90°
2026-05-05 18:47 33.64542 -84.41317 1041 ft 27 kts 89°
2026-05-05 18:47 33.64543 -84.41089 1041 ft 27 kts 90°
2026-05-05 18:48 33.64543 -84.40910 1040 ft 21 kts 90°
2026-05-05 18:48 33.64566 -84.40768 1040 ft 16 kts 77°
2026-05-05 18:48 33.64571 -84.40648 1039 ft 1 kts 89°
2026-05-05 18:49 33.64572 -84.40640 1041 ft 5 kts 83°
2026-05-05 18:49 33.64605 -84.40585 1039 ft 11 kts 26°
2026-05-05 18:49 33.64666 -84.40617 1037 ft 8 kts 296°
2026-05-05 18:49 33.64676 -84.40679 1038 ft 8 kts 274°
2026-05-05 18:50 33.64677 -84.40685 1038 ft 0 kts 274°
2026-05-05 18:50 33.64679 -84.40770 1039 ft 25 kts 270°
2026-05-05 18:50 33.64679 -84.41175 1041 ft 74 kts 272°
2026-05-05 18:50 33.64679 -84.42057 1039 ft 142 kts 271°
2026-05-05 18:51 33.64686 -84.43452 1425 ft 185 kts 266°
2026-05-05 18:51 33.64731 -84.45095 2279 ft 206 kts 267°
2026-05-05 18:51 33.64818 -84.46807 3082 ft 208 kts 269°
2026-05-05 18:51 33.65073 -84.48606 3212 ft 238 kts 289°
2026-05-05 18:52 33.66155 -84.50243 3385 ft 274 kts 320°
2026-05-05 18:52 33.67924 -84.51364 3770 ft 298 kts 340°
2026-05-05 18:52 33.69951 -84.51964 4690 ft 299 kts 350°
2026-05-05 18:52 33.71953 -84.52273 6020 ft 283 kts 352°
2026-05-05 18:53 33.73920 -84.52489 6949 ft 287 kts 353°
2026-05-05 18:53 33.75964 -84.52700 7392 ft 306 kts 352°
2026-05-05 18:53 33.78124 -84.52937 8092 ft 312 kts 352°
2026-05-05 18:53 33.80275 -84.53168 9366 ft 296 kts 351°
2026-05-05 18:54 33.82259 -84.53372 10427 ft 292 kts 351°
2026-05-05 18:54 33.84346 -84.53591 10989 ft 306 kts 351°
2026-05-05 18:54 33.86553 -84.53839 11180 ft 331 kts 351°
2026-05-05 18:54 33.88937 -84.54120 11298 ft 357 kts 351°
2026-05-05 18:55 33.91494 -84.54422 11403 ft 381 kts 351°
2026-05-05 18:55 33.94201 -84.54736 11635 ft 399 kts 351°
2026-05-05 18:55 33.96983 -84.55044 12427 ft 401 kts 351°
2026-05-05 18:55 33.99729 -84.55331 13622 ft 393 kts 352°
2026-05-05 18:56 34.02456 -84.55614 14366 ft 397 kts 351°
2026-05-05 18:56 34.05248 -84.55909 14858 ft 406 kts 351°
2026-05-05 18:56 34.08052 -84.56217 15771 ft 402 kts 351°
2026-05-05 18:56 34.10852 -84.56526 16485 ft 407 kts 350°
2026-05-05 18:57 34.13683 -84.56836 17261 ft 410 kts 350°
2026-05-05 18:57 34.16526 -84.57185 18052 ft 411 kts 346°
2026-05-05 18:57 34.19209 -84.58110 18739 ft 404 kts 330°
2026-05-05 18:57 34.21570 -84.59894 19440 ft 400 kts 320°
2026-05-05 18:58 34.23838 -84.61862 20123 ft 405 kts 322°
2026-05-05 18:58 34.26256 -84.63659 20815 ft 410 kts 326°
2026-05-05 18:58 34.28756 -84.65357 21525 ft 414 kts 326°
2026-05-05 18:58 34.31234 -84.67149 22268 ft 416 kts 324°
2026-05-05 18:59 34.33651 -84.69093 23022 ft 419 kts 321°
2026-05-05 18:59 34.36036 -84.71144 23721 ft 423 kts 321°
2026-05-05 18:59 34.38440 -84.73231 24374 ft 427 kts 321°
2026-05-05 18:59 34.40867 -84.75314 25066 ft 429 kts 321°
2026-05-05 19:00 34.43316 -84.77399 25741 ft 431 kts 321°
2026-05-05 19:00 34.45776 -84.79491 26404 ft 433 kts 321°
2026-05-05 19:00 34.48244 -84.81600 27062 ft 435 kts 321°
2026-05-05 19:00 34.50721 -84.83735 27673 ft 438 kts 321°
2026-05-05 19:01 34.53213 -84.85887 28272 ft 441 kts 321°
2026-05-05 19:01 34.55687 -84.88022 28886 ft 444 kts 321°
2026-05-05 19:01 34.58204 -84.90192 29648 ft 442 kts 321°
2026-05-05 19:01 34.60700 -84.92344 30503 ft 437 kts 320°
2026-05-05 19:02 34.63149 -84.94459 31514 ft 427 kts 320°
2026-05-05 19:02 34.65547 -84.96532 32320 ft 422 kts 320°
2026-05-05 19:02 34.67929 -84.98600 33042 ft 417 kts 320°
2026-05-05 19:02 34.70265 -85.00629 33954 ft 408 kts 320°
2026-05-05 19:03 34.72548 -85.02609 34659 ft 401 kts 320°
2026-05-05 19:03 34.74777 -85.04546 35246 ft 397 kts 320°
2026-05-05 19:03 34.77004 -85.06477 35833 ft 392 kts 320°
2026-05-05 19:03 34.79246 -85.08431 35995 ft 398 kts 319°
2026-05-05 19:04 34.83718 -85.12336 35980 ft 393 kts 319°
2026-05-05 19:04 34.88148 -85.16195 35995 ft 391 kts 319°
2026-05-05 19:05 34.91855 -85.19439 36002 ft 393 kts 320°
2026-05-05 19:05 34.96270 -85.23305 35996 ft 394 kts 320°
2026-05-05 19:06 35.00731 -85.27204 35995 ft 395 kts 320°
2026-05-05 19:06 35.05281 -85.31200 35987 ft 409 kts 320°
2026-05-05 19:07 35.09881 -85.35230 35991 ft 405 kts 320°
2026-05-05 19:07 35.14447 -85.39240 35999 ft 404 kts 320°
2026-05-05 19:08 35.18997 -85.43246 36005 ft 407 kts 319°
2026-05-05 19:08 35.23598 -85.47297 36003 ft 407 kts 319°
2026-05-05 19:09 35.28178 -85.51345 36005 ft 406 kts 319°
2026-05-05 19:09 35.32765 -85.55396 35991 ft 406 kts 319°
2026-05-05 19:10 35.37309 -85.59417 35984 ft 406 kts 319°
2026-05-05 19:10 35.41887 -85.63477 35992 ft 406 kts 319°
2026-05-05 19:11 35.46472 -85.67545 35989 ft 407 kts 319°
2026-05-05 19:11 35.51062 -85.71628 35980 ft 408 kts 319°
2026-05-05 19:12 35.55097 -85.76317 35971 ft 399 kts 305°
2026-05-05 19:12 35.58550 -85.81665 35981 ft 402 kts 307°
2026-05-05 19:13 35.62173 -85.86889 35976 ft 401 kts 307°
2026-05-05 19:13 35.65663 -85.92232 35975 ft 400 kts 306°
2026-05-05 19:14 35.69106 -85.97622 36015 ft 400 kts 306°
2026-05-05 19:14 35.72516 -86.02961 35987 ft 398 kts 305°
2026-05-05 19:15 35.75928 -86.08332 35986 ft 398 kts 305°
2026-05-05 19:15 35.79331 -86.13701 35986 ft 398 kts 305°
2026-05-05 19:16 35.82733 -86.19075 35972 ft 398 kts 305°
2026-05-05 19:16 35.86112 -86.24419 35985 ft 398 kts 305°
2026-05-05 19:17 35.89508 -86.29806 35919 ft 398 kts 305°
2026-05-05 19:17 35.92909 -86.35206 35918 ft 398 kts 305°
2026-05-05 19:18 35.96304 -86.40601 35920 ft 398 kts 305°
2026-05-05 19:18 35.99696 -86.46005 35938 ft 398 kts 305°
2026-05-05 19:19 36.03086 -86.51413 35941 ft 398 kts 305°
2026-05-05 19:19 36.06473 -86.56827 35944 ft 398 kts 305°
2026-05-05 19:20 36.09832 -86.62198 35938 ft 397 kts 304°
2026-05-05 19:20 36.13237 -86.67570 35941 ft 397 kts 307°
2026-05-05 19:21 36.16978 -86.72621 35937 ft 398 kts 309°
2026-05-05 19:21 36.20698 -86.77638 35968 ft 398 kts 308°
2026-05-05 19:22 36.24463 -86.82689 35958 ft 400 kts 309°
2026-05-05 19:22 36.28268 -86.87721 35946 ft 400 kts 309°
2026-05-05 19:23 36.32073 -86.92758 35945 ft 400 kts 309°
2026-05-05 19:23 36.35880 -86.97804 35934 ft 400 kts 309°
2026-05-05 19:24 36.39679 -87.02848 35929 ft 400 kts 309°
2026-05-05 19:24 36.43480 -87.07892 35914 ft 400 kts 309°
2026-05-05 19:25 36.47276 -87.12943 35933 ft 400 kts 308°
2026-05-05 19:25 36.51051 -87.17971 35902 ft 402 kts 308°
2026-05-05 19:26 36.54874 -87.23080 35876 ft 405 kts 309°
2026-05-05 19:26 36.58703 -87.28197 35882 ft 403 kts 308°
2026-05-05 19:27 36.62512 -87.33287 35865 ft 401 kts 308°
2026-05-05 19:27 36.66269 -87.38378 35886 ft 402 kts 308°
2026-05-05 19:28 36.70056 -87.43499 35849 ft 402 kts 308°
2026-05-05 19:28 36.73858 -87.48616 35866 ft 402 kts 308°
2026-05-05 19:29 36.77654 -87.53728 35871 ft 401 kts 308°
2026-05-05 19:29 36.81442 -87.58843 35873 ft 401 kts 308°
2026-05-05 19:30 36.85200 -87.63932 35868 ft 401 kts 308°
2026-05-05 19:30 36.88989 -87.69059 35865 ft 401 kts 308°
2026-05-05 19:31 36.92767 -87.74180 35858 ft 401 kts 307°
2026-05-05 19:31 36.96547 -87.79310 35853 ft 401 kts 307°
2026-05-05 19:32 37.00294 -87.84410 35851 ft 400 kts 307°
2026-05-05 19:32 37.04083 -87.89572 35842 ft 400 kts 307°
2026-05-05 19:33 37.07821 -87.94673 35843 ft 400 kts 307°
2026-05-05 19:33 37.11583 -87.99816 35846 ft 400 kts 307°
2026-05-05 19:34 37.15344 -88.04961 35849 ft 400 kts 307°
2026-05-05 19:35 37.20960 -88.12662 35846 ft 401 kts 307°
2026-05-05 19:35 37.24716 -88.17827 35854 ft 400 kts 306°
2026-05-05 19:36 37.28465 -88.22988 35850 ft 400 kts 306°
2026-05-05 19:36 37.32209 -88.28163 35850 ft 400 kts 306°
2026-05-05 19:37 37.35919 -88.33366 35852 ft 400 kts 306°
2026-05-05 19:37 37.39617 -88.38528 35853 ft 400 kts 306°
2026-05-05 19:38 37.43357 -88.43714 35854 ft 400 kts 306°
2026-05-05 19:38 37.47091 -88.48900 35890 ft 400 kts 306°
2026-05-05 19:39 37.50824 -88.54084 35858 ft 399 kts 306°
2026-05-05 19:39 37.54547 -88.59269 35850 ft 399 kts 306°
2026-05-05 19:40 37.58241 -88.64421 35845 ft 399 kts 306°
2026-05-05 19:40 37.61950 -88.69608 35849 ft 398 kts 306°
2026-05-05 19:41 37.65649 -88.74806 35849 ft 398 kts 305°
2026-05-05 19:41 37.69348 -88.80015 35858 ft 398 kts 305°
2026-05-05 19:42 37.73053 -88.85218 35864 ft 398 kts 305°
2026-05-05 19:42 37.76727 -88.90372 35856 ft 396 kts 305°
2026-05-05 19:43 37.80404 -88.95550 35852 ft 396 kts 305°
2026-05-05 19:43 37.84074 -89.00739 35854 ft 396 kts 304°
2026-05-05 19:44 37.87736 -89.05936 35853 ft 396 kts 305°
2026-05-05 19:44 37.91403 -89.11126 35861 ft 395 kts 305°
2026-05-05 19:45 37.95044 -89.16288 35857 ft 395 kts 304°
2026-05-05 19:45 37.98707 -89.21493 35856 ft 395 kts 304°
2026-05-05 19:46 38.02367 -89.26689 35862 ft 395 kts 304°
2026-05-05 19:46 38.06018 -89.31888 35862 ft 394 kts 304°
2026-05-05 19:47 38.09671 -89.37090 35857 ft 395 kts 304°
2026-05-05 19:47 38.13317 -89.42300 35858 ft 395 kts 304°
2026-05-05 19:48 38.16932 -89.47480 35852 ft 394 kts 304°
2026-05-05 19:48 38.20575 -89.52696 35894 ft 395 kts 304°
2026-05-05 19:49 38.24213 -89.57914 35880 ft 394 kts 304°
2026-05-05 19:49 38.27843 -89.63134 35874 ft 394 kts 304°
2026-05-05 19:50 38.31467 -89.68355 35879 ft 394 kts 304°
2026-05-05 19:50 38.35071 -89.73546 35888 ft 394 kts 304°
2026-05-05 19:51 38.38689 -89.78777 35892 ft 394 kts 304°
2026-05-05 19:51 38.42310 -89.84012 35892 ft 393 kts 304°
2026-05-05 19:52 38.45928 -89.89258 35890 ft 394 kts 304°
2026-05-05 19:52 38.49541 -89.94504 35894 ft 393 kts 304°
2026-05-05 19:53 38.53150 -89.99749 35893 ft 393 kts 303°
2026-05-05 19:53 38.56782 -90.05041 35907 ft 393 kts 303°
2026-05-05 19:54 38.60389 -90.10298 35908 ft 393 kts 303°
2026-05-05 19:54 38.63971 -90.15532 35909 ft 394 kts 303°
2026-05-05 19:55 38.67572 -90.20805 35939 ft 393 kts 303°
2026-05-05 19:55 38.71166 -90.26071 35909 ft 392 kts 303°
2026-05-05 19:56 38.74749 -90.31338 35911 ft 392 kts 303°
2026-05-05 19:56 38.78332 -90.36611 35937 ft 392 kts 303°
2026-05-05 19:57 38.81919 -90.41890 35928 ft 392 kts 303°
2026-05-05 19:57 38.85468 -90.47151 35926 ft 392 kts 302°
2026-05-05 19:58 38.88872 -90.52587 35933 ft 390 kts 300°
2026-05-05 19:58 38.92211 -90.58081 35934 ft 391 kts 300°
2026-05-05 19:59 38.95606 -90.63547 35935 ft 391 kts 301°
2026-05-05 19:59 38.99004 -90.69010 35930 ft 391 kts 301°
2026-05-05 20:00 39.02371 -90.74444 35932 ft 392 kts 301°
2026-05-05 20:00 39.05772 -90.79926 35939 ft 394 kts 300°
2026-05-05 20:01 39.09188 -90.85452 35944 ft 395 kts 300°
2026-05-05 20:01 39.12610 -90.90988 35995 ft 394 kts 300°
2026-05-05 20:02 39.16017 -90.96513 35950 ft 394 kts 300°
2026-05-05 20:02 39.19396 -91.02004 35949 ft 393 kts 300°
2026-05-05 20:03 39.22795 -91.07533 35949 ft 393 kts 300°
2026-05-05 20:03 39.26190 -91.13064 35951 ft 393 kts 300°
2026-05-05 20:04 39.29578 -91.18594 35952 ft 392 kts 300°
2026-05-05 20:04 39.32940 -91.24094 35951 ft 392 kts 300°
2026-05-05 20:05 39.36305 -91.29616 35969 ft 390 kts 300°
2026-05-05 20:05 39.39659 -91.35109 35956 ft 389 kts 300°
2026-05-05 20:06 39.42979 -91.40604 35965 ft 387 kts 300°
2026-05-05 20:06 39.46281 -91.46053 35961 ft 388 kts 300°
2026-05-05 20:07 39.49613 -91.51542 35956 ft 387 kts 300°
2026-05-05 20:07 39.52951 -91.57028 35951 ft 388 kts 300°
2026-05-05 20:08 39.56274 -91.62526 35951 ft 387 kts 300°
2026-05-05 20:08 39.59589 -91.68024 35969 ft 386 kts 300°
2026-05-05 20:09 39.62878 -91.73475 35961 ft 386 kts 300°
2026-05-05 20:09 39.66176 -91.78983 35958 ft 386 kts 300°
2026-05-05 20:10 39.69470 -91.84475 35969 ft 385 kts 300°
2026-05-05 20:10 39.72756 -91.89975 35976 ft 386 kts 300°
2026-05-05 20:11 39.76038 -91.95444 35966 ft 386 kts 299°
2026-05-05 20:11 39.79324 -92.00965 36011 ft 386 kts 299°
2026-05-05 20:12 39.82613 -92.06487 35977 ft 386 kts 299°
2026-05-05 20:12 39.85899 -92.12018 35974 ft 386 kts 299°
2026-05-05 20:13 39.89181 -92.17543 35978 ft 386 kts 299°
2026-05-05 20:13 39.92445 -92.23040 35971 ft 386 kts 299°
2026-05-05 20:14 39.95715 -92.28577 35975 ft 386 kts 299°
2026-05-05 20:14 39.98993 -92.34126 35980 ft 386 kts 299°
2026-05-05 20:15 40.02280 -92.39690 35994 ft 388 kts 298°
2026-05-05 20:15 40.05542 -92.45229 35974 ft 387 kts 298°
2026-05-05 20:16 40.08816 -92.50804 35954 ft 387 kts 298°
2026-05-05 20:16 40.12085 -92.56388 35953 ft 386 kts 298°
2026-05-05 20:17 40.14657 -92.62376 35973 ft 374 kts 287°
2026-05-05 20:17 40.16699 -92.68598 35958 ft 376 kts 288°
2026-05-05 20:18 40.18909 -92.74806 35957 ft 376 kts 288°
2026-05-05 20:18 40.21083 -92.81037 35965 ft 377 kts 288°
2026-05-05 20:19 40.23242 -92.87292 35981 ft 377 kts 288°
2026-05-05 20:19 40.25378 -92.93498 35973 ft 375 kts 287°
2026-05-05 20:20 40.27520 -92.99739 35966 ft 377 kts 287°
2026-05-05 20:20 40.29658 -93.06004 35968 ft 377 kts 287°
2026-05-05 20:21 40.31805 -93.12282 35967 ft 377 kts 287°
2026-05-05 20:21 40.33953 -93.18566 35970 ft 378 kts 287°
2026-05-05 20:22 40.36081 -93.24819 35963 ft 378 kts 287°
2026-05-05 20:22 40.38220 -93.31112 35960 ft 378 kts 287°
2026-05-05 20:23 40.40361 -93.37408 35964 ft 378 kts 287°
2026-05-05 20:23 40.42492 -93.43718 35991 ft 378 kts 287°
2026-05-05 20:24 40.44603 -93.49990 35967 ft 378 kts 287°
2026-05-05 20:24 40.46739 -93.56306 35962 ft 378 kts 287°
2026-05-05 20:25 40.48857 -93.62620 35958 ft 378 kts 286°
2026-05-05 20:25 40.50974 -93.68944 35958 ft 378 kts 287°
2026-05-05 20:26 40.53074 -93.75224 35950 ft 377 kts 286°
2026-05-05 20:26 40.55178 -93.81544 35968 ft 378 kts 286°
2026-05-05 20:27 40.57299 -93.87885 35959 ft 379 kts 286°
2026-05-05 20:27 40.59405 -93.94243 35952 ft 379 kts 286°
2026-05-05 20:28 40.61499 -94.00566 35957 ft 379 kts 286°
2026-05-05 20:28 40.63611 -94.06938 35955 ft 380 kts 286°
2026-05-05 20:29 40.65717 -94.13311 35956 ft 379 kts 286°
2026-05-05 20:29 40.67804 -94.19686 35936 ft 379 kts 286°
2026-05-05 20:30 40.69898 -94.26057 35952 ft 380 kts 285°
2026-05-05 20:30 40.71981 -94.32413 35949 ft 380 kts 285°
2026-05-05 20:31 40.74074 -94.38817 35954 ft 380 kts 286°
2026-05-05 20:31 40.76164 -94.45217 35954 ft 380 kts 285°
2026-05-05 20:32 40.78240 -94.51630 35954 ft 380 kts 285°
2026-05-05 20:32 40.80309 -94.57996 35968 ft 380 kts 285°
2026-05-05 20:33 40.82391 -94.64418 35976 ft 381 kts 285°
2026-05-05 20:33 40.84469 -94.70857 35961 ft 382 kts 285°
2026-05-05 20:34 40.86546 -94.77306 35959 ft 381 kts 285°
2026-05-05 20:34 40.88629 -94.83759 35956 ft 381 kts 285°
2026-05-05 20:35 40.90687 -94.90174 35955 ft 382 kts 285°
2026-05-05 20:35 40.92757 -94.96634 35968 ft 382 kts 285°
2026-05-05 20:36 40.94821 -95.03116 35964 ft 383 kts 285°
2026-05-05 20:36 40.96887 -95.09610 35958 ft 383 kts 285°
2026-05-05 20:37 40.98939 -95.16067 35961 ft 383 kts 285°
2026-05-05 20:37 41.01008 -95.22569 35956 ft 383 kts 285°
2026-05-05 20:38 41.03063 -95.29075 35963 ft 383 kts 284°
2026-05-05 20:38 41.05103 -95.35581 35960 ft 383 kts 284°
2026-05-05 20:39 41.07161 -95.42102 35958 ft 384 kts 285°
2026-05-05 20:39 41.09208 -95.48593 35964 ft 384 kts 284°
2026-05-05 20:40 41.11260 -95.55133 35967 ft 384 kts 284°
2026-05-05 20:40 41.13302 -95.61695 35964 ft 385 kts 284°
2026-05-05 20:41 41.15330 -95.68245 35962 ft 383 kts 284°
2026-05-05 20:41 41.17652 -95.74683 35963 ft 392 kts 291°
2026-05-05 20:42 41.20395 -95.80893 36006 ft 392 kts 290°
2026-05-05 20:42 41.23087 -95.87201 35984 ft 393 kts 291°
2026-05-05 20:43 41.25919 -95.93443 35988 ft 396 kts 291°
2026-05-05 20:43 41.28778 -95.99686 35975 ft 395 kts 291°
2026-05-05 20:44 41.31637 -96.05907 35980 ft 393 kts 292°
2026-05-05 20:44 41.34484 -96.12135 35994 ft 395 kts 291°
2026-05-05 20:45 41.38754 -96.21460 35984 ft 395 kts 292°
2026-05-05 20:45 41.41634 -96.27707 35989 ft 396 kts 291°
2026-05-05 20:46 41.44489 -96.33988 35993 ft 396 kts 291°
2026-05-05 20:46 41.47349 -96.40275 35996 ft 397 kts 292°
2026-05-05 20:47 41.50191 -96.46530 35984 ft 395 kts 291°
2026-05-05 20:47 41.53045 -96.52841 35992 ft 399 kts 291°
2026-05-05 20:48 41.55921 -96.59165 36000 ft 398 kts 291°
2026-05-05 20:48 41.58795 -96.65508 36017 ft 399 kts 291°
2026-05-05 20:49 41.61650 -96.71822 36004 ft 400 kts 291°
2026-05-05 20:49 41.64491 -96.78191 36001 ft 397 kts 291°
2026-05-05 20:50 41.66851 -96.83454 35991 ft 397 kts 291°
2026-05-05 20:50 41.70170 -96.90916 36007 ft 401 kts 292°
2026-05-05 20:51 41.73018 -96.97279 36003 ft 402 kts 292°
2026-05-05 20:51 41.75895 -97.03683 35993 ft 400 kts 291°
2026-05-05 20:52 41.78750 -97.10101 36018 ft 402 kts 292°
2026-05-05 20:52 41.81614 -97.16519 36006 ft 401 kts 291°
2026-05-05 20:53 41.84437 -97.22908 36000 ft 402 kts 291°
2026-05-05 20:53 41.87275 -97.29339 36011 ft 400 kts 291°
2026-05-05 20:54 41.90114 -97.35761 36007 ft 400 kts 291°
2026-05-05 20:54 41.92951 -97.42207 36010 ft 401 kts 291°
2026-05-05 20:55 41.95780 -97.48662 36063 ft 401 kts 291°
2026-05-05 20:55 41.98597 -97.55079 36006 ft 402 kts 291°
2026-05-05 20:56 42.01462 -97.61571 35999 ft 404 kts 291°
2026-05-05 20:56 42.04296 -97.68092 36002 ft 404 kts 291°
2026-05-05 20:57 42.07139 -97.74618 35999 ft 404 kts 291°
2026-05-05 20:57 42.09944 -97.81106 36011 ft 403 kts 291°
2026-05-05 20:58 42.12776 -97.87631 36006 ft 403 kts 291°
2026-05-05 20:58 42.15610 -97.94165 36021 ft 404 kts 291°
2026-05-05 20:59 42.17956 -97.99631 36039 ft 407 kts 291°
2026-05-05 20:59 42.20814 -98.06254 36040 ft 410 kts 291°
2026-05-05 21:00 42.23669 -98.12890 36022 ft 408 kts 291°
2026-05-05 21:00 42.26532 -98.19519 36021 ft 408 kts 291°
2026-05-05 21:01 42.29373 -98.26171 36034 ft 410 kts 291°
2026-05-05 21:01 42.32195 -98.32776 36041 ft 408 kts 291°
2026-05-05 21:02 42.35024 -98.39455 36027 ft 411 kts 292°
2026-05-05 21:02 42.37882 -98.46189 36033 ft 414 kts 292°
2026-05-05 21:03 42.40740 -98.52942 36029 ft 414 kts 292°
2026-05-05 21:03 42.43612 -98.59691 36028 ft 414 kts 291°
2026-05-05 21:04 42.46448 -98.66406 36029 ft 413 kts 291°
2026-05-05 21:04 42.49078 -98.73293 36024 ft 410 kts 288°
2026-05-05 21:05 42.51507 -98.80298 36028 ft 411 kts 288°
2026-05-05 21:05 42.54060 -98.87264 36030 ft 413 kts 289°
2026-05-05 21:06 42.56642 -98.94156 36028 ft 413 kts 289°
2026-05-05 21:06 42.59227 -99.01108 36030 ft 412 kts 289°
2026-05-05 21:07 42.61814 -99.08061 36028 ft 413 kts 289°
2026-05-05 21:07 42.64403 -99.15031 36030 ft 414 kts 289°
2026-05-05 21:08 42.66989 -99.22044 36048 ft 416 kts 289°
2026-05-05 21:08 42.69573 -99.29038 36037 ft 417 kts 289°
2026-05-05 21:09 42.72175 -99.36082 36037 ft 417 kts 289°
2026-05-05 21:09 42.74773 -99.43140 36041 ft 417 kts 289°
2026-05-05 21:10 42.77364 -99.50199 36042 ft 418 kts 289°
2026-05-05 21:10 42.79958 -99.57298 36039 ft 419 kts 289°
2026-05-05 21:11 42.82538 -99.64362 36065 ft 419 kts 289°
2026-05-05 21:11 42.85136 -99.71497 36037 ft 421 kts 289°
2026-05-05 21:12 42.87732 -99.78645 36036 ft 421 kts 289°
2026-05-05 21:12 42.90321 -99.85795 36042 ft 421 kts 289°
2026-05-05 21:13 42.92897 -99.92926 36046 ft 423 kts 289°
2026-05-05 21:13 42.95494 -100.00126 36045 ft 423 kts 289°
2026-05-05 21:14 42.98088 -100.07337 36047 ft 423 kts 289°
2026-05-05 21:14 43.00679 -100.14562 36057 ft 424 kts 289°
2026-05-05 21:15 43.03249 -100.21755 36043 ft 424 kts 290°
2026-05-05 21:15 43.05838 -100.29014 36058 ft 425 kts 290°
2026-05-05 21:16 43.08430 -100.36290 36056 ft 425 kts 290°
2026-05-05 21:16 43.11014 -100.43574 36054 ft 425 kts 290°
2026-05-05 21:17 43.13577 -100.50815 36049 ft 425 kts 290°
2026-05-05 21:17 43.16152 -100.58117 36033 ft 426 kts 290°
2026-05-05 21:18 43.18727 -100.65427 36018 ft 426 kts 290°
2026-05-05 21:18 43.21295 -100.72740 36009 ft 426 kts 290°
2026-05-05 21:19 43.23855 -100.80063 36005 ft 426 kts 290°
2026-05-05 21:19 43.26401 -100.87344 36005 ft 426 kts 290°
2026-05-05 21:20 43.28958 -100.94680 36001 ft 426 kts 290°
2026-05-05 21:20 43.31507 -101.02019 36025 ft 427 kts 290°
2026-05-05 21:21 43.34056 -101.09377 36024 ft 427 kts 290°
2026-05-05 21:21 43.36590 -101.16699 36031 ft 427 kts 290°
2026-05-05 21:22 43.39134 -101.24074 36046 ft 427 kts 290°
2026-05-05 21:22 43.41668 -101.31458 36051 ft 426 kts 290°
2026-05-05 21:23 43.44202 -101.38853 36057 ft 428 kts 290°
2026-05-05 21:23 43.46721 -101.46224 36074 ft 429 kts 290°
2026-05-05 21:24 43.49260 -101.53675 36061 ft 430 kts 290°
2026-05-05 21:24 43.51799 -101.61144 36057 ft 431 kts 290°
2026-05-05 21:25 43.54339 -101.68621 36058 ft 431 kts 290°
2026-05-05 21:25 43.56860 -101.76063 36054 ft 432 kts 290°
2026-05-05 21:26 43.59415 -101.83619 36053 ft 432 kts 290°
2026-05-05 21:26 43.61944 -101.91146 36058 ft 433 kts 290°
2026-05-05 21:27 43.64479 -101.98723 36055 ft 436 kts 290°
2026-05-05 21:27 43.66997 -102.06281 36042 ft 436 kts 290°
2026-05-05 21:28 43.69545 -102.13894 36049 ft 436 kts 290°
2026-05-05 21:28 43.72080 -102.21517 36050 ft 437 kts 290°
2026-05-05 21:29 43.74611 -102.29153 36047 ft 437 kts 290°
2026-05-05 21:29 43.77143 -102.36811 36059 ft 439 kts 291°
2026-05-05 21:30 43.79674 -102.44467 36041 ft 442 kts 291°
2026-05-05 21:30 43.82230 -102.52221 36042 ft 443 kts 291°
2026-05-05 21:31 43.84775 -102.60006 36043 ft 443 kts 291°
2026-05-05 21:31 43.87313 -102.67792 36031 ft 443 kts 291°
2026-05-05 21:32 43.89839 -102.75527 36018 ft 443 kts 291°
2026-05-05 21:32 43.92380 -102.83327 36015 ft 445 kts 291°
2026-05-05 21:33 43.94914 -102.91155 36004 ft 445 kts 291°
2026-05-05 21:33 43.97443 -102.98982 35994 ft 444 kts 292°
2026-05-05 21:34 44.00083 -103.06687 35996 ft 445 kts 292°
2026-05-05 21:34 44.02622 -103.14525 36022 ft 445 kts 292°
2026-05-05 21:35 44.05294 -103.22271 36009 ft 444 kts 294°
2026-05-05 21:35 44.08039 -103.29960 36010 ft 444 kts 294°
2026-05-05 21:36 44.10761 -103.37589 36022 ft 442 kts 294°
2026-05-05 21:36 44.13499 -103.45263 36025 ft 443 kts 294°
2026-05-05 21:37 44.16239 -103.52954 36028 ft 443 kts 293°
2026-05-05 21:37 44.18974 -103.60645 36049 ft 443 kts 294°
2026-05-05 21:38 44.21719 -103.68356 36050 ft 445 kts 294°
2026-05-05 21:38 44.24445 -103.76039 36063 ft 445 kts 294°
2026-05-05 21:39 44.27187 -103.83787 36059 ft 446 kts 293°
2026-05-05 21:39 44.29911 -103.91538 36057 ft 445 kts 293°
2026-05-05 21:40 44.32634 -103.99320 36052 ft 447 kts 294°
2026-05-05 21:40 44.35359 -104.07093 36060 ft 451 kts 294°
2026-05-05 21:41 44.38122 -104.15006 36064 ft 454 kts 294°
2026-05-05 21:41 44.40883 -104.22922 36051 ft 453 kts 294°
2026-05-05 21:42 44.43639 -104.30843 36058 ft 453 kts 294°
2026-05-05 21:42 44.46357 -104.38716 36058 ft 452 kts 294°
2026-05-05 21:43 44.49094 -104.46666 36054 ft 455 kts 294°
2026-05-05 21:43 44.51857 -104.54672 36050 ft 457 kts 294°
2026-05-05 21:44 44.54612 -104.62704 36053 ft 457 kts 294°
2026-05-05 21:44 44.57357 -104.70740 36051 ft 457 kts 294°
2026-05-05 21:45 44.60079 -104.78734 36051 ft 457 kts 294°
2026-05-05 21:45 44.62817 -104.86785 36055 ft 458 kts 294°
2026-05-05 21:46 44.65560 -104.94867 36057 ft 459 kts 294°
2026-05-05 21:46 44.68301 -105.02971 36053 ft 459 kts 294°
2026-05-05 21:47 44.71033 -105.11086 36054 ft 459 kts 294°
2026-05-05 21:47 44.73759 -105.19206 36056 ft 459 kts 294°
2026-05-05 21:48 44.76463 -105.27279 36064 ft 460 kts 294°
2026-05-05 21:48 44.79191 -105.35444 36042 ft 462 kts 294°
2026-05-05 21:49 44.81919 -105.43640 36065 ft 463 kts 294°
2026-05-05 21:49 44.84640 -105.51856 36068 ft 463 kts 294°
2026-05-05 21:50 44.87346 -105.60021 36067 ft 463 kts 294°
2026-05-05 21:50 44.90062 -105.68253 36079 ft 464 kts 295°
2026-05-05 21:51 44.92779 -105.76521 36069 ft 465 kts 295°
2026-05-05 21:51 44.95498 -105.84815 36056 ft 466 kts 295°
2026-05-05 21:52 44.99569 -105.97284 36070 ft 466 kts 295°
2026-05-05 21:53 45.02256 -106.05547 36068 ft 466 kts 295°
2026-05-05 21:53 45.04954 -106.13881 36067 ft 466 kts 295°
2026-05-05 21:54 45.07653 -106.22230 36071 ft 467 kts 295°
2026-05-05 21:54 45.10345 -106.30587 36075 ft 467 kts 295°
2026-05-05 21:55 45.13029 -106.38955 36061 ft 466 kts 295°
2026-05-05 21:55 45.15706 -106.47323 36073 ft 466 kts 295°
2026-05-05 21:56 45.18357 -106.55630 36075 ft 466 kts 295°
2026-05-05 21:56 45.21027 -106.64028 36078 ft 468 kts 295°
2026-05-05 21:57 45.23697 -106.72443 36069 ft 467 kts 295°
2026-05-05 21:57 45.26355 -106.80864 36075 ft 468 kts 295°
2026-05-05 21:58 45.28986 -106.89229 36072 ft 467 kts 295°
2026-05-05 21:58 45.31632 -106.97659 36080 ft 468 kts 296°
2026-05-05 21:59 45.34273 -107.06105 36076 ft 468 kts 296°
2026-05-05 21:59 45.36906 -107.14554 36085 ft 468 kts 296°
2026-05-05 22:00 45.39537 -107.23016 36088 ft 468 kts 296°
2026-05-05 22:00 45.42146 -107.31430 36090 ft 467 kts 295°
2026-05-05 22:01 45.44753 -107.39894 36089 ft 467 kts 296°
2026-05-05 22:01 45.47358 -107.48356 36093 ft 466 kts 296°
2026-05-05 22:02 45.49954 -107.56822 36096 ft 467 kts 296°
2026-05-05 22:02 45.52545 -107.65299 36095 ft 466 kts 296°
2026-05-05 22:03 45.55112 -107.73730 36097 ft 466 kts 296°
2026-05-05 22:03 45.57688 -107.82216 36095 ft 466 kts 296°
2026-05-05 22:04 45.60256 -107.90707 36097 ft 465 kts 296°
2026-05-05 22:04 45.62815 -107.99190 36106 ft 465 kts 296°
2026-05-05 22:05 45.65349 -108.07624 36107 ft 465 kts 296°
2026-05-05 22:05 45.67889 -108.16119 36111 ft 465 kts 296°
2026-05-05 22:06 45.70429 -108.24627 36099 ft 465 kts 296°
2026-05-05 22:06 45.72967 -108.33147 36092 ft 466 kts 296°
2026-05-05 22:07 45.75494 -108.41666 36083 ft 465 kts 297°
2026-05-05 22:07 45.77992 -108.50123 36084 ft 464 kts 297°
2026-05-05 22:08 45.80493 -108.58626 36092 ft 464 kts 296°
2026-05-05 22:08 45.82779 -108.67290 36084 ft 467 kts 292°
2026-05-05 22:09 45.84654 -108.76216 36097 ft 467 kts 292°
2026-05-05 22:09 45.86747 -108.85011 36063 ft 465 kts 295°
2026-05-05 22:10 45.88937 -108.93643 36084 ft 463 kts 295°
2026-05-05 22:10 45.91135 -109.02314 36082 ft 462 kts 295°
2026-05-05 22:11 45.93333 -109.10978 36086 ft 461 kts 295°
2026-05-05 22:11 45.95527 -109.19640 36076 ft 462 kts 295°
2026-05-05 22:12 45.97700 -109.28243 36078 ft 461 kts 295°
2026-05-05 22:12 45.99876 -109.36904 36037 ft 459 kts 296°
2026-05-05 22:13 46.02034 -109.45527 36077 ft 457 kts 296°
2026-05-05 22:13 46.04183 -109.54129 36083 ft 456 kts 296°
2026-05-05 22:14 46.06305 -109.62669 36087 ft 456 kts 296°
2026-05-05 22:14 46.08441 -109.71279 36097 ft 456 kts 296°
2026-05-05 22:15 46.10566 -109.79881 36098 ft 456 kts 296°
2026-05-05 22:15 46.12683 -109.88498 36113 ft 456 kts 296°
2026-05-05 22:16 46.14793 -109.97118 36142 ft 456 kts 296°
2026-05-05 22:16 46.16903 -110.05746 36142 ft 456 kts 296°
2026-05-05 22:17 46.19000 -110.14386 36130 ft 456 kts 296°
2026-05-05 22:17 46.21091 -110.23036 36135 ft 456 kts 296°
2026-05-05 22:18 46.23162 -110.31613 36140 ft 454 kts 296°
2026-05-05 22:18 46.25225 -110.40231 36118 ft 453 kts 297°
2026-05-05 22:19 46.27287 -110.48823 36137 ft 452 kts 297°
2026-05-05 22:19 46.29338 -110.57411 36133 ft 452 kts 297°
2026-05-05 22:20 46.31376 -110.66002 36125 ft 451 kts 297°
2026-05-05 22:20 46.33393 -110.74537 36120 ft 451 kts 297°
2026-05-05 22:21 46.35423 -110.83135 36116 ft 452 kts 297°
2026-05-05 22:21 46.37442 -110.91745 36086 ft 451 kts 297°
2026-05-05 22:22 46.39455 -111.00357 36117 ft 452 kts 297°
2026-05-05 22:22 46.41454 -111.08924 36122 ft 452 kts 297°
2026-05-05 22:23 46.43455 -111.17557 36140 ft 452 kts 297°
2026-05-05 22:23 46.45451 -111.26201 36136 ft 452 kts 297°
2026-05-05 22:24 46.47440 -111.34841 36150 ft 451 kts 297°
2026-05-05 22:24 46.49419 -111.43485 36113 ft 451 kts 297°
2026-05-05 22:25 46.51387 -111.52120 36161 ft 451 kts 297°
2026-05-05 22:25 46.53341 -111.60706 36141 ft 451 kts 297°
2026-05-05 22:26 46.55300 -111.69354 36141 ft 451 kts 297°
2026-05-05 22:26 46.57249 -111.78008 36122 ft 450 kts 297°
2026-05-05 22:27 46.59200 -111.86651 36124 ft 450 kts 297°
2026-05-05 22:27 46.61154 -111.95299 36073 ft 449 kts 298°
2026-05-05 22:28 46.63170 -112.03894 36114 ft 450 kts 297°
2026-05-05 22:28 46.65101 -112.12492 36119 ft 449 kts 298°
2026-05-05 22:29 46.67171 -112.21057 36149 ft 448 kts 299°
2026-05-05 22:29 46.69279 -112.29605 36140 ft 448 kts 299°
2026-05-05 22:30 46.71379 -112.38152 36142 ft 448 kts 299°
2026-05-05 22:30 46.73466 -112.46648 36151 ft 448 kts 299°
2026-05-05 22:31 46.75562 -112.55190 36134 ft 447 kts 299°
2026-05-05 22:31 46.77654 -112.63735 36149 ft 448 kts 298°
2026-05-05 22:32 46.79744 -112.72305 36139 ft 448 kts 299°
2026-05-05 22:32 46.81804 -112.80812 36142 ft 447 kts 298°
2026-05-05 22:33 46.83872 -112.89383 36134 ft 448 kts 298°
2026-05-05 22:33 46.85937 -112.97963 36113 ft 448 kts 298°
2026-05-05 22:34 46.87996 -113.06554 36062 ft 448 kts 298°
2026-05-05 22:34 46.90039 -113.15105 36090 ft 449 kts 298°
2026-05-05 22:35 46.92091 -113.23734 36079 ft 449 kts 299°
2026-05-05 22:35 46.94134 -113.32357 36065 ft 448 kts 299°
2026-05-05 22:36 46.96167 -113.40966 36043 ft 447 kts 299°
2026-05-05 22:36 46.98196 -113.49585 36038 ft 448 kts 299°
2026-05-05 22:37 47.00215 -113.58208 36034 ft 448 kts 298°
2026-05-05 22:37 47.02215 -113.66779 36023 ft 447 kts 298°
2026-05-05 22:38 47.04213 -113.75394 36026 ft 446 kts 299°
2026-05-05 22:38 47.06210 -113.84013 36028 ft 446 kts 299°
2026-05-05 22:39 47.08200 -113.92645 36029 ft 447 kts 299°
2026-05-05 22:39 47.10185 -114.01279 36033 ft 447 kts 299°
2026-05-05 22:40 47.12150 -114.09862 36035 ft 447 kts 298°
2026-05-05 22:40 47.14119 -114.18519 35965 ft 447 kts 298°
2026-05-05 22:41 47.16087 -114.27191 36029 ft 449 kts 298°
2026-05-05 22:41 47.18056 -114.35899 36032 ft 449 kts 298°
2026-05-05 22:42 47.20011 -114.44612 36030 ft 449 kts 298°
2026-05-05 22:42 47.21954 -114.53285 36022 ft 450 kts 298°
2026-05-05 22:43 47.23904 -114.62021 36020 ft 449 kts 298°
2026-05-05 22:43 47.25848 -114.70756 36003 ft 449 kts 298°
2026-05-05 22:44 47.27791 -114.79518 35970 ft 451 kts 297°
2026-05-05 22:44 47.29713 -114.88254 35985 ft 452 kts 297°
2026-05-05 22:45 47.31643 -114.97063 35990 ft 452 kts 297°
2026-05-05 22:45 47.33570 -115.05883 35968 ft 452 kts 297°
2026-05-05 22:46 47.35495 -115.14712 35961 ft 452 kts 297°
2026-05-05 22:46 47.37405 -115.23551 35939 ft 453 kts 296°
2026-05-05 22:47 47.39292 -115.32409 35937 ft 453 kts 297°
2026-05-05 22:47 47.41193 -115.41207 35939 ft 453 kts 297°
2026-05-05 22:48 47.43103 -115.50073 35908 ft 454 kts 297°
2026-05-05 22:48 47.44998 -115.58961 35904 ft 453 kts 296°
2026-05-05 22:49 47.46110 -115.68298 35918 ft 470 kts 283°
2026-05-05 22:49 47.46551 -115.77959 35909 ft 470 kts 284°
2026-05-05 22:50 47.47171 -115.87479 35883 ft 466 kts 285°
2026-05-05 22:50 47.47792 -115.97028 35915 ft 467 kts 284°
2026-05-05 22:51 47.48363 -116.06611 35940 ft 468 kts 284°
2026-05-05 22:51 47.48933 -116.16183 35938 ft 468 kts 284°
2026-05-05 22:52 47.49507 -116.25758 35940 ft 468 kts 284°
2026-05-05 22:52 47.50068 -116.35284 35915 ft 468 kts 284°
2026-05-05 22:53 47.50623 -116.44870 35958 ft 468 kts 284°
2026-05-05 22:53 47.51171 -116.54479 35961 ft 470 kts 283°
2026-05-05 22:54 47.51714 -116.64132 35986 ft 471 kts 283°
2026-05-05 22:54 47.52248 -116.73800 35998 ft 472 kts 283°
2026-05-05 22:55 47.52686 -116.81839 35995 ft 472 kts 283°
2026-05-05 22:55 47.53205 -116.91515 35985 ft 472 kts 282°
2026-05-05 22:56 47.53800 -117.02756 35993 ft 472 kts 283°
2026-05-05 22:56 47.54306 -117.12442 35985 ft 472 kts 282°
2026-05-05 22:57 47.54718 -117.20507 35963 ft 472 kts 282°
2026-05-05 22:57 47.55204 -117.30191 35972 ft 471 kts 282°
2026-05-05 22:58 47.55683 -117.39850 35973 ft 470 kts 282°
2026-05-05 22:58 47.56155 -117.49500 35982 ft 470 kts 282°
2026-05-05 22:59 47.56618 -117.59138 35984 ft 469 kts 282°
2026-05-05 22:59 47.57348 -117.68693 35983 ft 466 kts 285°
2026-05-05 23:00 47.58563 -117.82916 35978 ft 466 kts 285°
2026-05-05 23:00 47.59436 -117.92415 35962 ft 465 kts 285°
2026-05-05 23:01 47.60334 -118.01916 35957 ft 466 kts 285°
2026-05-05 23:01 47.61226 -118.11418 35945 ft 466 kts 285°
2026-05-05 23:02 47.62116 -118.20928 35937 ft 466 kts 285°
2026-05-05 23:02 47.62998 -118.30442 35934 ft 466 kts 285°
2026-05-05 23:03 47.63872 -118.39962 35909 ft 466 kts 285°
2026-05-05 23:03 47.64741 -118.49496 35930 ft 467 kts 285°
2026-05-05 23:04 47.65598 -118.58996 35934 ft 468 kts 285°
2026-05-05 23:04 47.66452 -118.68558 35926 ft 469 kts 284°
2026-05-05 23:05 47.67300 -118.78151 35919 ft 469 kts 284°
2026-05-05 23:05 47.68138 -118.87755 35915 ft 469 kts 284°
2026-05-05 23:06 47.68973 -118.97363 35923 ft 470 kts 284°
2026-05-05 23:06 47.69803 -119.07011 35919 ft 472 kts 284°
2026-05-05 23:07 47.70621 -119.16673 35913 ft 472 kts 284°
2026-05-05 23:07 47.71434 -119.26333 35920 ft 471 kts 284°
2026-05-05 23:08 47.72243 -119.35998 35906 ft 472 kts 283°
2026-05-05 23:08 47.73036 -119.45612 35886 ft 472 kts 283°
2026-05-05 23:09 47.73780 -119.55321 35892 ft 474 kts 282°
2026-05-05 23:09 47.74431 -119.65067 35893 ft 474 kts 282°
2026-05-05 23:10 47.75160 -119.74785 35883 ft 473 kts 282°
2026-05-05 23:10 47.75918 -119.84500 35885 ft 473 kts 282°
2026-05-05 23:11 47.76672 -119.94216 35872 ft 473 kts 282°
2026-05-05 23:11 47.77421 -120.03922 35866 ft 472 kts 282°
2026-05-05 23:12 47.78105 -120.13599 35878 ft 471 kts 280°
2026-05-05 23:12 47.78739 -120.23220 35873 ft 470 kts 282°
2026-05-05 23:13 47.79518 -120.32913 35181 ft 473 kts 282°
2026-05-05 23:13 47.79880 -120.37732 34443 ft 464 kts 281°
2026-05-05 23:13 47.80219 -120.42446 33720 ft 453 kts 281°
2026-05-05 23:14 47.80550 -120.47056 32917 ft 443 kts 281°
2026-05-05 23:14 47.80874 -120.51567 32147 ft 434 kts 281°
2026-05-05 23:14 47.81194 -120.55982 31380 ft 425 kts 282°
2026-05-05 23:14 47.81507 -120.60321 30668 ft 418 kts 281°
2026-05-05 23:15 47.81812 -120.64586 29941 ft 411 kts 281°
2026-05-05 23:15 47.82105 -120.68726 29119 ft 405 kts 282°
2026-05-05 23:15 47.82398 -120.72860 28313 ft 398 kts 282°
2026-05-05 23:15 47.82683 -120.76926 27538 ft 392 kts 282°
2026-05-05 23:16 47.82956 -120.80939 26773 ft 386 kts 282°
2026-05-05 23:16 47.83217 -120.84884 26025 ft 381 kts 282°
2026-05-05 23:16 47.83467 -120.88778 25303 ft 375 kts 282°
2026-05-05 23:16 47.83718 -120.92617 24595 ft 371 kts 282°
2026-05-05 23:17 47.83973 -120.96413 23903 ft 367 kts 283°
2026-05-05 23:17 47.84225 -121.00161 23182 ft 361 kts 283°
2026-05-05 23:17 47.84466 -121.03798 22425 ft 356 kts 282°
2026-05-05 23:17 47.84715 -121.07451 21617 ft 354 kts 282°
2026-05-05 23:18 47.84961 -121.11075 20855 ft 351 kts 282°
2026-05-05 23:18 47.85202 -121.14674 20134 ft 348 kts 282°
2026-05-05 23:18 47.85435 -121.18247 19412 ft 345 kts 282°
2026-05-05 23:18 47.85669 -121.21795 18703 ft 344 kts 281°
2026-05-05 23:19 47.85899 -121.25332 18000 ft 342 kts 281°
2026-05-05 23:19 47.86121 -121.28839 17217 ft 338 kts 280°
2026-05-05 23:19 47.86335 -121.32314 16449 ft 336 kts 279°
2026-05-05 23:19 47.86551 -121.35760 15699 ft 333 kts 279°
2026-05-05 23:20 47.86771 -121.39176 14971 ft 330 kts 279°
2026-05-05 23:20 47.86990 -121.42564 14286 ft 327 kts 278°
2026-05-05 23:20 47.87200 -121.45870 13614 ft 324 kts 278°
2026-05-05 23:20 47.87405 -121.49199 12801 ft 321 kts 279°
2026-05-05 23:21 47.87619 -121.52476 12026 ft 316 kts 278°
2026-05-05 23:21 47.87841 -121.55726 11304 ft 314 kts 278°
2026-05-05 23:21 47.88049 -121.58951 10584 ft 311 kts 278°
2026-05-05 23:21 47.88234 -121.62094 10178 ft 300 kts 277°
2026-05-05 23:22 47.88310 -121.65145 9780 ft 291 kts 266°
2026-05-05 23:22 47.87703 -121.67977 9378 ft 288 kts 240°
2026-05-05 23:22 47.86457 -121.70289 9265 ft 287 kts 230°
2026-05-05 23:22 47.85167 -121.72628 9039 ft 295 kts 236°
2026-05-05 23:23 47.83991 -121.75130 8728 ft 294 kts 237°
2026-05-05 23:23 47.82790 -121.77578 8374 ft 293 kts 234°
2026-05-05 23:23 47.81469 -121.79851 8154 ft 289 kts 229°
2026-05-05 23:23 47.80053 -121.81968 8056 ft 288 kts 226°
2026-05-05 23:24 47.78597 -121.84015 8004 ft 289 kts 225°
2026-05-05 23:24 47.77125 -121.86057 7991 ft 288 kts 229°
2026-05-05 23:24 47.75971 -121.88499 7585 ft 291 kts 248°
2026-05-05 23:24 47.75338 -121.91251 6961 ft 275 kts 258°
2026-05-05 23:25 47.74970 -121.93930 6270 ft 251 kts 262°
2026-05-05 23:25 47.74725 -121.96409 5829 ft 239 kts 264°
2026-05-05 23:25 47.74514 -121.98806 5621 ft 230 kts 265°
2026-05-05 23:25 47.74313 -122.01165 5251 ft 230 kts 265°
2026-05-05 23:26 47.74113 -122.03515 4738 ft 228 kts 265°
2026-05-05 23:26 47.73918 -122.05832 4295 ft 222 kts 265°
2026-05-05 23:26 47.73728 -122.08092 4049 ft 219 kts 265°
2026-05-05 23:26 47.73549 -122.10302 3971 ft 210 kts 265°
2026-05-05 23:27 47.73386 -122.12397 3984 ft 209 kts 265°
2026-05-05 23:27 47.73219 -122.14562 3997 ft 211 kts 265°
2026-05-05 23:27 47.73050 -122.16717 3993 ft 211 kts 265°
2026-05-05 23:27 47.72882 -122.18887 3988 ft 210 kts 266°
2026-05-05 23:28 47.72703 -122.21079 3992 ft 211 kts 265°
2026-05-05 23:28 47.72519 -122.23239 3997 ft 212 kts 265°
2026-05-05 23:28 47.72341 -122.25409 3991 ft 211 kts 265°
2026-05-05 23:28 47.72075 -122.27561 3965 ft 214 kts 251°
2026-05-05 23:29 47.71152 -122.29274 3953 ft 218 kts 220°
2026-05-05 23:29 47.69861 -122.30420 3979 ft 209 kts 210°
2026-05-05 23:29 47.68605 -122.31349 3982 ft 199 kts 199°
2026-05-05 23:29 47.67318 -122.31577 4074 ft 177 kts 182°
2026-05-05 23:30 47.66113 -122.31573 4075 ft 172 kts 180°
2026-05-05 23:30 47.64914 -122.31571 4011 ft 172 kts 181°
2026-05-05 23:30 47.63717 -122.31578 3866 ft 171 kts 181°
2026-05-05 23:30 47.62530 -122.31589 3632 ft 170 kts 181°
2026-05-05 23:31 47.61347 -122.31606 3403 ft 171 kts 181°
2026-05-05 23:31 47.60193 -122.31623 3150 ft 168 kts 182°
2026-05-05 23:31 47.59033 -122.31641 2941 ft 167 kts 182°
2026-05-05 23:31 47.57886 -122.31657 2751 ft 163 kts 182°
2026-05-05 23:32 47.56773 -122.31678 2516 ft 161 kts 182°
2026-05-05 23:32 47.55657 -122.31699 2306 ft 159 kts 182°
2026-05-05 23:32 47.54557 -122.31709 2098 ft 156 kts 182°
2026-05-05 23:32 47.53475 -122.31717 1887 ft 156 kts 182°
2026-05-05 23:33 47.52396 -122.31727 1640 ft 154 kts 182°
2026-05-05 23:33 47.51318 -122.31737 1464 ft 156 kts 181°
2026-05-05 23:33 47.50218 -122.31735 1244 ft 160 kts 181°
2026-05-05 23:33 47.49101 -122.31728 1009 ft 160 kts 180°
2026-05-05 23:34 47.47986 -122.31710 794 ft 160 kts 181°
2026-05-05 23:34 47.46871 -122.31761 581 ft 159 kts 186°
2026-05-05 23:34 47.45765 -122.31794 412 ft 135 kts 179°
2026-05-05 23:34 47.45203 -122.31799 397 ft 99 kts 180°
2026-05-05 23:35 47.44518 -122.31802 385 ft 53 kts 176°
2026-05-05 23:35 47.44229 -122.31687 374 ft 31 kts 148°
2026-05-05 23:35 47.44061 -122.31547 375 ft 23 kts 151°
2026-05-05 23:35 47.43922 -122.31431 375 ft 20 kts 149°
2026-05-05 23:36 47.43825 -122.31313 375 ft 18 kts 117°
2026-05-05 23:36 47.43808 -122.31133 376 ft 20 kts 90°
2026-05-05 23:36 47.43807 -122.30960 378 ft 14 kts 90°
2026-05-05 23:36 47.43806 -122.30813 381 ft 15 kts 90°
2026-05-05 23:37 47.43807 -122.30691 381 ft 6 kts 90°
2026-05-05 23:37 47.43807 -122.30667 382 ft 1 kts 90°
2026-05-05 23:37 47.43804 -122.30658 382 ft 1 kts 114°
2026-05-05 23:37 47.43792 -122.30644 382 ft 4 kts 148°
2026-05-05 23:38 47.43784 -122.30640 382 ft 6 kts 162°
2026-05-05 23:38 47.43759 -122.30628 382 ft 9 kts 162°
2026-05-05 23:38 47.43724 -122.30558 383 ft 10 kts 99°
2026-05-05 23:38 47.43722 -122.30452 385 ft 12 kts 90°
2026-05-05 23:39 47.43724 -122.30314 386 ft 13 kts 83°
2026-05-05 23:39 47.43732 -122.30255 386 ft 5 kts 75°
2026-05-05 23:39 47.43742 -122.30201 387 ft 0 kts 73°
2026-05-05 23:40 47.43744 -122.30195 387 ft 2 kts 73°
2026-05-05 23:40 47.43751 -122.30166 387 ft 4 kts 67°
2026-05-05 23:40 47.43752 -122.30163 388 ft 0 kts 60°
2026-05-05 23:41 47.43756 -122.30160 388 ft 1 kts 36°
2026-05-05 23:41 47.43777 -122.30147 389 ft 3 kts 18°
2026-05-05 23:41 47.43802 -122.30137 390 ft 4 kts 13°
2026-05-05 23:41 47.43822 -122.30130 391 ft 2 kts 13°
2026-05-05 23:42 47.43831 -122.30128 391 ft 0 kts 12°